JE4YIZ-13 Weather Reports


Display with metric or nautical units.
time (UTC)temp
F
wind
direction
speed
MPH
gust
MPH
rain 1hr
in
rain 24hr
in
rain mn
in
humidity
%
barometer
mb
20260508113611 60 170 0.0 2.0 0.00 0.00 0.00 65 1012.8
20260508113120 60 170 1.0 2.0 0.00 0.00 0.00 64 1012.7
20260508112626 61 161 1.0 1.0 0.00 0.00 0.00 64 1012.7
20260508112156 61 158 0.0 2.0 0.00 0.00 0.00 63 1012.6
20260508111618 61 157 0.0 2.0 0.00 0.00 0.00 62 1012.6
20260508111128 61 155 0.0 2.0 0.00 0.00 0.00 62 1012.6
20260508110637 61 155 0.0 2.0 0.00 0.00 0.00 61 1012.5
20260508110117 62 156 1.0 2.0 0.00 0.00 0.00 61 1012.5
20260508105627 62 160 1.0 4.0 0.00 0.00 0.00 60 1012.4
20260508105155 62 156 1.0 4.0 0.00 0.00 0.00 60 1012.3
20260508104616 62 146 1.0 3.0 0.00 0.00 0.00 59 1012.2
20260508104127 63 155 1.0 4.0 0.00 0.00 0.00 59 1012.2
20260508103635 63 157 2.0 6.0 0.00 0.00 0.00 58 1012.0
20260508103117 63 169 1.0 6.0 0.00 0.00 0.00 58 1012.0
20260508102630 63 167 1.0 5.0 0.00 0.00 0.00 58 1012.0
20260508102112 63 150 2.0 7.0 0.00 0.00 0.00 58 1012.0
20260508101633 64 135 2.0 9.0 0.00 0.00 0.00 58 1011.9
20260508101119 64 121 4.0 9.0 0.00 0.00 0.00 58 1011.9
20260508100630 64 151 2.0 8.0 0.00 0.00 0.00 58 1011.8
20260508100113 64 133 1.0 8.0 0.00 0.00 0.00 58 1011.7
20260508095620 65 129 5.0 8.0 0.00 0.00 0.00 57 1011.7
20260508095130 65 136 2.0 11.0 0.00 0.00 0.00 55 1011.5
20260508094613 66 163 3.0 13.0 0.00 0.00 0.00 53 1011.3
20260508094113 66 148 6.0 13.0 0.00 0.00 0.00 51 1011.3
20260508093622 67 146 4.0 7.0 0.00 0.00 0.00 48 1011.1
20260508093126 67 146 1.0 7.0 0.00 0.00 0.00 45 1010.9
20260508092635 68 165 2.0 7.0 0.00 0.00 0.00 44 1010.9
20260508092116 68 150 2.0 8.0 0.00 0.00 0.00 44 1010.8
20260508091627 68 212 3.0 8.0 0.00 0.00 0.00 43 1010.9
20260508091157 68 175 1.0 6.0 0.00 0.00 0.00 42 1010.9
20260508090617 68 154 2.0 7.0 0.00 0.00 0.00 40 1010.8
20260508090126 68 144 2.0 9.0 0.00 0.00 0.00 39 1010.8
20260508085632 68 148 2.0 9.0 0.00 0.00 0.00 37 1010.7
20260508085113 69 127 3.0 11.0 0.00 0.00 0.00 37 1010.7
20260508084644 69 160 4.0 11.0 0.00 0.00 0.00 35 1010.6
20260508084154 69 159 5.0 10.0 0.00 0.00 0.00 34 1010.5
20260508083615 70 168 3.0 10.0 0.00 0.00 0.00 36 1010.5
20260508083124 69 224 6.0 10.0 0.00 0.00 0.00 37 1010.4
20260508082633 69 227 4.0 12.0 0.00 0.00 0.00 38 1010.2
20260508082114 69 166 6.0 12.0 0.00 0.00 0.00 38 1010.3
20260508081621 69 173 1.0 9.0 0.00 0.00 0.00 40 1010.4
20260508081129 68 178 4.0 9.0 0.00 0.00 0.00 39 1010.3
20260508080632 68 167 3.0 10.0 0.00 0.00 0.00 40 1010.3
20260508080158 68 153 2.0 10.0 0.00 0.00 0.00 42 1010.3
20260508075631 68 158 5.0 10.0 0.00 0.00 0.00 41 1010.2
20260508075136 69 151 3.0 6.0 0.00 0.00 0.00 41 1010.1
20260508074619 69 172 2.0 9.0 0.00 0.00 0.00 43 1010.2
20260508074146 69 129 3.0 10.0 0.00 0.00 0.00 42 1010.1
20260508073635 70 153 4.0 11.0 0.00 0.00 0.00 43 1010.1
20260508073116 70 205 3.0 11.0 0.00 0.00 0.00 45 1010.0
20260508072624 70 124 4.0 11.0 0.00 0.00 0.00 44 1010.0
20260508072157 71 115 3.0 10.0 0.00 0.00 0.00 45 1009.8
20260508071614 70 169 5.0 10.0 0.00 0.00 0.00 45 1009.9
20260508071112 70 225 4.0 9.0 0.00 0.00 0.00 44 1009.8
20260508070622 70 158 4.0 10.0 0.00 0.00 0.00 45 1009.7
20260508070127 69 171 4.0 10.0 0.00 0.00 0.00 47 1009.7
20260508065637 68 162 2.0 14.0 0.00 0.00 0.00 49 1009.7
20260508065120 68 108 7.0 18.0 0.00 0.00 0.00 49 1009.7
20260508064630 68 131 7.0 21.0 0.00 0.00 0.00 48 1009.7
20260508063632 69 79 6.0 15.0 0.00 0.00 0.00 47 1009.5
20260508063114 69 111 7.0 18.0 0.00 0.00 0.00 47 1009.7
20260508062623 69 79 8.0 18.0 0.00 0.00 0.00 46 1009.6
20260508062133 70 124 7.0 17.0 0.00 0.00 0.00 46 1009.7
20260508061116 70 157 9.0 19.0 0.00 0.00 0.00 47 1009.6
20260508060647 71 176 5.0 14.0 0.00 0.00 0.00 47 1009.5
20260508060134 71 129 5.0 14.0 0.00 0.00 0.00 46 1009.3
20260508055614 71 168 6.0 17.0 0.00 0.00 0.00 46 1009.4
20260508055124 71 150 8.0 17.0 0.00 0.00 0.00 49 1009.5
20260508054635 71 122 4.0 14.0 0.00 0.00 0.00 48 1009.5
20260508054115 71 94 6.0 14.0 0.00 0.00 0.00 48 1009.6
20260508053620 71 128 6.0 15.0 0.00 0.00 0.00 47 1009.4
20260508053129 71 119 7.0 18.0 0.00 0.00 0.00 48 1009.5
20260508052658 71 142 6.0 18.0 0.00 0.00 0.00 46 1009.5
20260508052120 72 140 5.0 14.0 0.00 0.00 0.00 43 1009.4
20260508051630 72 179 4.0 14.0 0.00 0.00 0.00 44 1009.4
20260508051112 71 134 6.0 12.0 0.00 0.00 0.00 45 1009.5
20260508050622 71 170 4.0 12.0 0.00 0.00 0.00 48 1009.5
20260508050130 71 131 5.0 12.0 0.00 0.00 0.00 49 1009.5
20260508045635 71 193 4.0 13.0 0.00 0.00 0.00 51 1009.5
20260508045118 72 122 4.0 13.0 0.00 0.00 0.00 50 1009.5
20260508044721 72 195 7.0 17.0 0.00 0.00 0.00 49 1009.5
20260508044138 71 115 5.0 17.0 0.00 0.00 0.00 51 1009.6
20260508043626 72 243 6.0 17.0 0.00 0.00 0.00 51 1009.6
20260508043135 72 147 7.0 17.0 0.00 0.00 0.00 49 1009.6
20260508042617 72 160 4.0 12.0 0.00 0.00 0.00 52 1009.6
20260508042121 71 147 4.0 15.0 0.00 0.00 0.00 54 1009.4
20260508041630 72 165 8.0 15.0 0.00 0.00 0.00 52 1009.5
20260508041113 72 164 5.0 13.0 0.00 0.00 0.00 53 1009.5
20260508040622 71 167 6.0 13.0 0.00 0.00 0.00 54 1009.6
20260508040131 71 158 6.0 16.0 0.00 0.00 0.00 53 1009.4
20260508035614 72 149 8.0 16.0 0.00 0.00 0.00 52 1009.4
20260508035123 73 153 7.0 11.0 0.00 0.00 0.00 53 1009.2
20260508034628 72 127 4.0 12.0 0.00 0.00 0.00 54 1009.2
20260508033651 72 122 6.0 13.0 0.00 0.00 0.00 56 1009.2
20260508033133 71 178 6.0 13.0 0.00 0.00 0.00 56 1009.0
20260508032620 71 203 4.0 10.0 0.00 0.00 0.00 59 1009.0
20260508032129 71 136 4.0 14.0 0.00 0.00 0.00 58 1009.1
20260508031633 71 140 5.0 15.0 0.00 0.00 0.00 57 1009.0
20260508031111 70 157 6.0 16.0 0.00 0.00 0.00 59 1009.0
20260508030621 70 130 4.0 17.0 0.00 0.00 0.00 59 1008.9
20260508030147 70 120 6.0 17.0 0.00 0.00 0.00 59 1009.1
20260508025635 71 192 6.0 17.0 0.00 0.00 0.00 60 1009.0
20260508025118 71 214 4.0 17.0 0.00 0.00 0.00 59 1009.0
20260508024628 70 161 8.0 17.0 0.00 0.00 0.00 59 1009.1
20260508024158 70 217 5.0 16.0 0.00 0.00 0.00 62 1008.9
20260508023617 70 139 5.0 18.0 0.00 0.00 0.00 64 1009.0
20260508023127 69 70 7.0 20.0 0.00 0.00 0.00 65 1009.1
20260508022632 69 196 7.0 20.0 0.00 0.00 0.00 66 1009.1
20260508022114 70 115 7.0 19.0 0.00 0.00 0.00 66 1009.1
20260508021624 69 160 7.0 21.0 0.00 0.00 0.00 69 1009.2
20260508021134 69 78 6.0 18.0 0.00 0.00 0.00 68 1009.2
20260508020619 69 157 7.0 13.0 0.00 0.00 0.00 67 1009.2
20260508020128 69 172 5.0 17.0 0.00 0.00 0.00 68 1009.3
20260508015611 68 116 8.0 17.0 0.00 0.00 0.00 68 1009.1
20260508015121 69 150 4.0 23.0 0.00 0.00 0.00 68 1009.3
20260508014632 69 177 8.0 17.0 0.00 0.00 0.00 67 1009.1
20260508014115 69 269 6.0 22.0 0.00 0.00 0.00 67 1009.0
20260508013645 69 109 9.0 22.0 0.00 0.00 0.00 67 1009.0
20260508013132 68 133 8.0 21.0 0.00 0.00 0.00 66 1009.0
20260508012636 68 126 9.0 18.0 0.00 0.00 0.00 67 1009.0
20260508012145 68 127 6.0 15.0 0.00 0.00 0.00 69 1009.0
20260508011654 67 237 5.0 14.0 0.00 0.00 0.00 71 1009.0
20260508011115 66 113 7.0 15.0 0.00 0.00 0.00 73 1008.9
20260508010621 65 163 6.0 15.0 0.00 0.00 0.00 75 1009.0
20260508010131 65 82 5.0 13.0 0.00 0.00 0.00 75 1009.1
20260508005613 65 136 4.0 13.0 0.00 0.00 0.00 75 1009.1
20260508005121 65 143 5.0 16.0 0.00 0.00 0.00 75 1009.1
20260508004630 66 172 4.0 16.0 0.00 0.00 0.00 74 1009.2
20260508004134 66 149 4.0 19.0 0.00 0.00 0.00 74 1008.9
20260508003712 66 122 6.0 19.0 0.00 0.00 0.00 74 1008.9
20260508003131 66 150 7.0 13.0 0.00 0.00 0.00 73 1008.8
20260508002634 66 108 5.0 10.0 0.00 0.00 0.00 73 1008.8
20260508002122 66 139 5.0 12.0 0.00 0.00 0.00 73 1008.8
20260508001632 65 141 4.0 13.0 0.00 0.00 0.00 73 1008.9
20260508001115 65 124 5.0 13.0 0.00 0.00 0.00 72 1008.9
20260508000626 65 173 4.0 10.0 0.00 0.00 0.00 72 1008.9
20260508000135 65 118 1.0 9.0 0.00 0.00 0.00 71 1008.9
20260507235617 65 134 1.0 11.0 0.00 0.00 0.00 70 1008.8
20260507235122 66 148 5.0 11.0 0.00 0.00 0.00 69 1008.8
20260507234633 66 228 4.0 15.0 0.00 0.00 0.00 69 1008.7
20260507234115 66 125 6.0 15.0 0.00 0.00 0.00 68 1008.8
20260507233624 66 113 5.0 12.0 0.00 0.00 0.00 67 1008.8
20260507233133 66 205 6.0 10.0 0.00 0.00 0.00 67 1008.7
20260507232615 66 129 3.0 16.0 0.00 0.00 0.00 66 1008.8
20260507232145 66 127 3.0 12.0 0.00 0.00 0.00 65 1008.7
20260507231612 66 138 4.0 13.0 0.00 0.00 0.00 66 1008.7
20260507231117 66 174 3.0 12.0 0.00 0.00 0.00 68 1008.7
20260507230628 67 125 2.0 14.0 0.00 0.00 0.00 71 1008.7
20260507230137 67 136 6.0 14.0 0.00 0.00 0.00 72 1008.6
20260507225641 67 120 2.0 9.0 0.00 0.00 0.00 74 1008.6
20260507225130 66 118 5.0 9.0 0.00 0.00 0.00 75 1008.5
20260507224613 66 117 3.0 9.0 0.00 0.00 0.00 77 1008.5
20260507224112 66 178 5.0 8.0 0.00 0.00 0.00 77 1008.5
20260507223639 66 108 5.0 8.0 0.00 0.00 0.00 78 1008.2
20260507223147 66 158 3.0 6.0 0.00 0.00 0.00 78 1008.2
20260507222636 66 117 2.0 7.0 0.00 0.00 0.00 78 1008.2
20260507222118 66 137 3.0 9.0 0.00 0.00 0.00 78 1008.1
20260507221627 65 141 2.0 8.0 0.00 0.00 0.00 78 1008.2
20260507221136 65 147 3.0 8.0 0.00 0.00 0.00 79 1008.0
20260507220617 66 131 1.0 7.0 0.00 0.00 0.00 79 1008.0
20260507220126 66 153 2.0 8.0 0.00 0.00 0.00 79 1008.1
20260507215632 66 133 3.0 8.0 0.00 0.00 0.00 79 1008.2
20260507215115 66 125 2.0 11.0 0.00 0.00 0.00 79 1008.3
20260507214625 66 204 1.0 12.0 0.00 0.00 0.00 79 1008.4
20260507214126 66 143 4.0 12.0 0.00 0.00 0.00 79 1008.5
20260507213636 66 158 3.0 11.0 0.00 0.00 0.00 79 1008.5
20260507213117 66 187 3.0 10.0 0.00 0.00 0.00 78 1008.4
20260507212626 66 95 4.0 12.0 0.00 0.00 0.00 78 1008.4
20260507212135 66 124 5.0 12.0 0.00 0.00 0.00 78 1008.4
20260507211620 66 138 3.0 8.0 0.00 0.00 0.00 78 1008.2
20260507211130 66 142 2.0 7.0 0.00 0.00 0.00 78 1008.1
20260507210634 66 207 3.0 7.0 0.00 0.00 0.00 78 1008.2
20260507210123 66 155 1.0 6.0 0.00 0.00 0.00 78 1008.2
20260507205654 66 181 2.0 8.0 0.00 0.00 0.00 78 1008.1
20260507205115 66 138 2.0 8.0 0.00 0.00 0.00 78 1008.2
20260507204615 66 176 3.0 8.0 0.00 0.00 0.00 77 1008.1
20260507204121 66 137 3.0 12.0 0.00 0.00 0.00 77 1008.2
20260507203652 66 122 3.0 12.0 0.00 0.00 0.00 77 1008.1
20260507203113 66 136 2.0 10.0 0.00 0.00 0.00 78 1008.2
20260507202621 66 129 3.0 12.0 0.00 0.00 0.00 78 1008.0
20260507202132 66 198 3.0 11.0 0.00 0.00 0.00 79 1008.1
20260507201614 65 145 4.0 9.0 0.00 0.00 0.00 80 1008.0
20260507201113 65 230 2.0 9.0 0.00 0.00 0.00 81 1007.9
20260507200623 65 159 3.0 9.0 0.00 0.00 0.00 81 1007.8
20260507200128 65 153 3.0 9.0 0.00 0.00 0.00 82 1007.9
20260507195658 65 133 1.0 7.0 0.00 0.00 0.00 82 1007.8
20260507195140 65 123 2.0 6.0 0.00 0.00 0.00 83 1008.0
20260507194628 64 146 0.0 3.0 0.00 0.00 0.00 83 1008.0
20260507194137 64 199 1.0 3.0 0.00 0.00 0.00 84 1007.9
20260507193620 64 155 0.0 3.0 0.00 0.00 0.00 84 1008.0
20260507193128 64 173 1.0 2.0 0.00 0.00 0.00 85 1007.9
20260507192632 64 171 0.0 2.0 0.00 0.00 0.00 85 1007.9
20260507192114 64 166 1.0 2.0 0.00 0.00 0.00 86 1007.9
20260507191625 64 170 0.0 2.0 0.00 0.00 0.00 87 1007.9
20260507191136 63 171 0.0 2.0 0.00 0.00 0.00 87 1008.0
20260507190620 63 158 0.0 2.0 0.00 0.00 0.00 88 1008.0
20260507190128 63 165 0.0 2.0 0.00 0.00 0.00 88 1008.1
20260507185633 63 165 1.0 2.0 0.00 0.00 0.00 88 1008.0
20260507185121 62 148 1.0 2.0 0.00 0.00 0.00 88 1007.7
20260507184612 62 165 0.0 0.0 0.00 0.00 0.00 88 1007.5
20260507184111 62 165 0.0 0.0 0.00 0.00 0.00 88 1007.7
20260507183626 62 165 0.0 0.0 0.00 0.00 0.00 88 1007.6
20260507183157 62 165 0.0 0.0 0.00 0.00 0.00 88 1007.6
20260507182622 62 165 0.0 0.0 0.00 0.00 0.00 88 1007.7
20260507182135 62 165 0.0 0.0 0.00 0.00 0.00 88 1007.7
20260507181622 62 165 0.0 0.0 0.00 0.00 0.00 87 1007.7
20260507181134 62 165 0.0 0.0 0.00 0.00 0.00 87 1007.6
20260507180639 62 165 0.0 0.0 0.00 0.00 0.00 87 1007.6
20260507180126 62 165 0.0 0.0 0.00 0.00 0.00 87 1007.6
20260507175637 62 165 0.0 0.0 0.00 0.00 0.00 87 1007.6
20260507175120 63 165 0.0 0.0 0.00 0.00 0.00 87 1007.7
20260507174653 63 165 0.0 0.0 0.00 0.00 0.00 87 1007.8
20260507174117 63 167 0.0 0.0 0.00 0.00 0.00 87 1007.7
20260507173619 63 167 0.0 0.0 0.00 0.00 0.00 87 1008.1
20260507173132 63 167 0.0 0.0 0.00 0.00 0.00 87 1008.0
20260507172624 63 167 0.0 0.0 0.00 0.00 0.00 87 1008.0
20260507172120 63 167 0.0 0.0 0.00 0.00 0.00 87 1008.0
20260507171624 63 167 0.0 0.0 0.00 0.00 0.00 87 1008.0
20260507171135 63 167 0.0 0.0 0.00 0.00 0.00 87 1008.1
20260507170620 63 167 0.0 0.0 0.00 0.00 0.00 86 1008.2
20260507170150 63 167 0.0 0.0 0.00 0.00 0.00 86 1008.5
20260507165613 63 167 0.0 0.0 0.00 0.00 0.00 86 1008.4
20260507165115 63 167 0.0 0.0 0.00 0.00 0.00 86 1008.5
20260507164645 63 167 0.0 0.0 0.00 0.00 0.00 86 1008.6
20260507164157 63 167 0.0 0.0 0.00 0.00 0.00 86 1008.6
20260507163640 63 167 0.0 0.0 0.00 0.00 0.00 86 1008.5
20260507163131 63 167 0.0 0.0 0.00 0.00 0.00 86 1008.6
20260507162617 63 167 0.0 0.0 0.00 0.00 0.00 86 1008.7
20260507162129 63 167 0.0 0.0 0.00 0.00 0.00 86 1008.8
20260507161638 63 167 0.0 0.0 0.00 0.00 0.00 85 1008.9
20260507161120 63 167 0.0 0.0 0.00 0.00 0.00 85 1008.8
20260507160631 63 167 0.0 0.0 0.00 0.00 0.00 85 1008.7
20260507160115 63 167 0.0 0.0 0.00 0.00 0.00 85 1008.7
20260507155626 63 167 0.0 0.0 0.00 0.00 0.00 85 1008.8
20260507155137 63 167 0.0 0.0 0.00 0.00 0.00 85 1009.0
20260507154643 63 167 0.0 0.0 0.00 0.00 0.00 85 1008.9
20260507154134 63 166 0.0 0.0 0.00 0.00 0.00 85 1009.0
20260507153619 63 167 0.0 0.0 0.00 0.00 0.00 84 1009.1
20260507152620 63 167 0.0 0.0 0.00 0.00 0.00 84 1009.3
20260507152153 63 167 0.0 0.0 0.00 0.00 0.00 84 1009.4
20260507151635 64 167 0.0 0.0 0.00 0.00 0.00 84 1009.4
20260507151126 64 167 0.0 0.0 0.00 0.00 0.00 84 1009.4
20260507150613 64 167 0.0 0.0 0.00 0.00 0.00 83 1009.5
20260507150125 64 167 0.0 0.0 0.00 0.00 0.00 83 1009.5
20260507145611 64 167 0.0 0.0 0.00 0.00 0.00 83 1009.4
20260507145135 64 167 0.0 0.0 0.00 0.00 0.00 83 1009.5
20260507144644 64 167 0.0 0.0 0.00 0.00 0.00 83 1009.5
20260507144156 64 166 0.0 0.0 0.00 0.00 0.00 83 1009.4
20260507143622 64 167 0.0 0.0 0.00 0.00 0.00 83 1009.3
20260507143132 64 167 0.0 0.0 0.00 0.00 0.00 83 1009.3
20260507142616 64 167 0.0 0.0 0.00 0.00 0.00 83 1009.4
20260507142128 64 167 0.0 0.0 0.00 0.00 0.00 83 1009.7
20260507141611 64 167 0.0 0.0 0.00 0.00 0.00 83 1009.7
20260507141144 64 167 0.0 0.0 0.00 0.00 0.00 83 1009.6
20260507140614 64 167 0.0 0.0 0.00 0.00 0.00 82 1009.6
20260507140121 64 167 0.0 0.0 0.00 0.00 0.00 82 1009.6
20260507135656 64 167 0.0 0.0 0.00 0.00 0.00 82 1009.6
20260507135143 64 167 0.0 0.0 0.00 0.00 0.00 82 1009.6
20260507134633 64 167 0.0 0.0 0.00 0.00 0.00 82 1009.5
20260507134117 64 167 0.0 0.0 0.00 0.00 0.00 82 1009.5
20260507133630 64 167 0.0 0.0 0.00 0.00 0.00 82 1009.6
20260507133113 64 166 0.0 0.0 0.00 0.00 0.00 82 1009.5
20260507132616 64 167 0.0 0.0 0.00 0.00 0.00 82 1009.3
20260507132147 64 179 0.0 0.0 0.00 0.00 0.00 82 1009.2
20260507131612 64 179 0.0 0.0 0.00 0.00 0.00 82 1009.3
20260507131123 64 179 0.0 0.0 0.00 0.00 0.00 82 1009.3
20260507130636 64 179 0.0 0.0 0.00 0.00 0.00 82 1009.3
20260507130120 64 179 0.0 0.0 0.00 0.00 0.00 81 1009.5
20260507125634 64 179 0.0 0.0 0.00 0.00 0.00 81 1009.6
20260507125143 64 179 0.0 0.0 0.00 0.00 0.00 81 1009.6
20260507124635 64 179 0.0 0.0 0.00 0.00 0.00 81 1009.7
20260507124119 64 179 0.0 0.0 0.00 0.00 0.00 81 1009.7
20260507123654 64 179 0.0 0.0 0.00 0.00 0.00 81 1009.7
20260507123137 64 179 0.0 0.0 0.00 0.00 0.00 82 1009.7
20260507122627 64 179 0.0 0.0 0.00 0.00 0.00 81 1009.8
20260507122111 64 179 0.0 0.0 0.00 0.00 0.00 81 1009.6
20260507121625 64 179 0.0 0.0 0.00 0.00 0.00 80 1009.7
20260507121137 65 179 0.0 0.0 0.00 0.00 0.00 80 1009.5
20260507120620 65 179 0.0 0.0 0.00 0.00 0.00 80 1009.4
20260507115615 65 181 0.0 0.0 0.00 0.00 0.00 80 1009.5
20260507115125 66 181 0.0 2.0 0.00 0.00 0.00 80 1009.4
20260507114656 66 181 0.0 2.0 0.00 0.00 0.00 80 1009.5
20260507114118 66 182 1.0 2.0 0.00 0.00 0.00 80 1009.4